Weather History for Piney Island, NC

Change the Weather History Date:

Saturday, November 2, 2013

  Actual Average (KMRH) Record (KMRH)
Temperature  
Mean Temperature 68 °F -  
Max Temperature 75 °F 73 °F 83 °F (1986)
Min Temperature 59 °F 54 °F 31 °F (1993)
Cooling Degree Days 2    
Growing Degree Days 18 (Base 50)    
Moisture  
Dew Point 64 °F    
Average Humidity 89    
Maximum Humidity 97    
Minimum Humidity 76    
Precipitation  
Precipitation 0.56 in - - ()
Sea Level Pressure  
Sea Level Pressure 29.75 in    
Wind  
Wind Speed 11 mph (WSW)    
Max Wind Speed 16 mph    
Max Gust Speed 29 mph    
Averages and records for this station are not official NWS values.
T = Trace of Precipitation, MM = Missing Value Source: NWS Daily Summary

Daily Weather History Graph

Daily Weather History Graph

Search for Another Location

Airport:

Trip Planner

Search our weather history database for the weather conditions in past years. The results will help you decide how hot, cold, wet, or windy it might be!

Date:

Astronomy

Nov. 02, 2013 Rise Set
Actual Time 7:28 AM EDT 6:10 PM EDT
Civil Twilight 7:01 AM EDT 6:36 PM EDT
Nautical Twilight 6:31 AM EDT 7:06 PM EDT
Astronomical Twilight 6:02 AM EDT 7:36 PM EDT
Moon 6:24 AM EDT (11/2) 5:39 PM EDT (11/2)
Length of Visible Light 11h 34m
Length of Day
10h 42m
Waning Crescent, 1% of the Moon is Illuminated
Nov 2
Waning Crescent
Nov 3
New
Nov 10
First Quarter
Nov 17
Full
Nov 25
Last Quarter

Hourly Weather History & Observations

Time (EDT) Temp. Dew Point Humidity Pressure Visibility Wind Dir Wind Speed Gust Speed Precip Events Conditions
12:56 AM 75.9 °F 71.1 °F 85% 29.75 in - SSW 16.1 mph 28.8 mph 0.00 in Rain Light Rain
1:56 AM 73.9 °F 71.1 °F 91% 29.73 in - SSW 12.7 mph - 0.00 in   Overcast
2:56 AM 73.9 °F 71.1 °F 91% 29.71 in - SW 16.1 mph - 0.03 in Rain Light Rain
3:39 AM 73.0 °F 70.0 °F 90% 29.69 in - WSW 10.4 mph - 0.01 in Rain Light Rain
3:56 AM 73.0 °F 70.0 °F 90% 29.71 in - SW 12.7 mph - 0.01 in   Overcast
4:26 AM 72.0 °F 70.0 °F 93% 29.70 in - WSW 16.1 mph 21.9 mph 0.14 in Rain Heavy Rain
4:37 AM 70.0 °F 68.0 °F 93% 29.70 in - West 16.1 mph - 0.18 in Rain Heavy Rain
4:56 AM 69.1 °F 66.9 °F 93% 29.71 in - West 10.4 mph - 0.21 in Rain Light Rain
5:56 AM 69.1 °F 66.9 °F 93% 29.72 in - WSW 12.7 mph - 0.13 in Rain Rain
6:56 AM 68.0 °F 66.0 °F 93% 29.72 in - WSW 6.9 mph - 0.14 in Rain Light Rain
7:34 AM 66.9 °F 66.0 °F 97% 29.71 in - SW 4.6 mph - 0.02 in Rain Light Rain
7:56 AM 66.9 °F 64.9 °F 93% 29.74 in - SW 6.9 mph - 0.02 in Rain Light Rain
8:05 AM 66.9 °F 66.0 °F 97% 29.71 in - WSW 3.5 mph - 0.01 in Rain Light Rain
8:18 AM 66.9 °F 66.0 °F 97% 29.71 in - West 6.9 mph - 0.01 in Rain Light Rain
8:30 AM 68.0 °F 66.0 °F 93% 29.70 in - West 10.4 mph - 0.01 in   Overcast
8:39 AM 68.0 °F 66.0 °F 93% 29.72 in - West 10.4 mph - 0.01 in   Overcast
8:56 AM 66.9 °F 64.0 °F 90% 29.75 in - West 12.7 mph - 0.01 in   Overcast
9:26 AM 66.9 °F 64.0 °F 90% 29.75 in - West 10.4 mph - N/A   Overcast
9:56 AM 66.9 °F 64.0 °F 90% 29.78 in - West 11.5 mph - 0.00 in   Overcast
10:17 AM 66.9 °F 63.0 °F 87% 29.76 in - West 13.8 mph - N/A   Scattered Clouds
10:24 AM 66.9 °F 63.0 °F 87% 29.76 in - West 9.2 mph - N/A   Mostly Cloudy
10:31 AM 66.0 °F 63.0 °F 90% 29.75 in - West 8.1 mph - N/A   Mostly Cloudy
10:56 AM 66.0 °F 62.1 °F 87% 29.77 in - West 9.2 mph - 0.00 in Rain Light Rain
11:56 AM 64.9 °F 61.0 °F 87% 29.77 in - WSW 4.6 mph - 0.01 in Rain Light Rain
12:31 PM 64.9 °F 61.0 °F 87% 29.75 in - WSW 5.8 mph - 0.00 in   Mostly Cloudy
12:56 PM 64.9 °F 60.1 °F 84% 29.76 in - West 6.9 mph - 0.00 in   Mostly Cloudy
1:04 PM 66.0 °F 61.0 °F 84% 29.75 in - WSW 6.9 mph - N/A   Scattered Clouds
1:56 PM 66.0 °F 59.0 °F 78% 29.74 in - West 9.2 mph - N/A   Clear
2:56 PM 66.0 °F 59.0 °F 78% 29.74 in - West 10.4 mph - N/A   Clear
3:56 PM 66.9 °F 59.0 °F 76% 29.73 in - West 8.1 mph - N/A   Clear
4:56 PM 66.9 °F 59.0 °F 76% 29.75 in - West 5.8 mph - N/A   Clear
5:56 PM 66.0 °F 60.1 °F 81% 29.79 in - WSW 5.8 mph - N/A   Clear
6:56 PM 63.0 °F 60.1 °F 90% 29.79 in - WSW 4.6 mph - N/A   Clear
7:56 PM 63.0 °F 59.0 °F 87% 29.81 in - West 5.8 mph - N/A   Clear
8:56 PM 62.1 °F 57.9 °F 86% 29.84 in - SSW 4.6 mph - N/A   Clear
9:56 PM 60.1 °F 57.0 °F 90% 29.86 in - SSW 6.9 mph - N/A   Clear
10:56 PM 60.1 °F 57.0 °F 90% 29.88 in - WSW 6.9 mph - N/A   Clear
11:56 PM 59.0 °F 55.9 °F 90% 29.88 in - WSW 8.1 mph - N/A   Mostly Cloudy